AAL4L KCLT-KBDL

Flight info

Callsign AAL4L
Flight time 1h 26m
Altitude 37000
Route BARMY5 RDU NOWAE Q87 GEARS BBOBO Q22 RBV Q419 DPK DPK3
Aircraft A321/M-SDE3FGHIRWY/LB1

Departure

Time 2026-05-05 01:22
Airport Charlotte Douglas International Airport (KCLT)

Arrival

Time 2026-05-05 02:48
Airport Bradley International Airport (KBDL)
Time Latitude Longitude Altitude Speed Heading
2026-05-05 00:35 35.21828 -80.94291 732 ft 0 kts 96°
2026-05-05 01:02 35.21829 -80.94300 732 ft 4 kts 96°
2026-05-05 01:02 35.21832 -80.94331 731 ft 2 kts 97°
2026-05-05 01:02 35.21832 -80.94332 731 ft 0 kts 97°
2026-05-05 01:14 35.21821 -80.94330 732 ft 4 kts 177°
2026-05-05 01:14 35.21777 -80.94365 732 ft 8 kts 210°
2026-05-05 01:15 35.21724 -80.94373 732 ft 7 kts 174°
2026-05-05 01:15 35.21694 -80.94368 732 ft 2 kts 173°
2026-05-05 01:15 35.21682 -80.94367 732 ft 1 kts 173°
2026-05-05 01:15 35.21670 -80.94364 732 ft 4 kts 168°
2026-05-05 01:16 35.21648 -80.94346 732 ft 4 kts 135°
2026-05-05 01:16 35.21637 -80.94310 732 ft 0 kts 101°
2026-05-05 01:17 35.21629 -80.94261 732 ft 13 kts 101°
2026-05-05 01:17 35.21663 -80.94139 731 ft 16 kts 48°
2026-05-05 01:17 35.21734 -80.94042 732 ft 15 kts 48°
2026-05-05 01:18 35.21801 -80.93951 732 ft 14 kts 48°
2026-05-05 01:18 35.21863 -80.93867 732 ft 13 kts 48°
2026-05-05 01:18 35.21920 -80.93792 732 ft 11 kts 47°
2026-05-05 01:18 35.21973 -80.93726 733 ft 10 kts 37°
2026-05-05 01:19 35.22036 -80.93714 733 ft 9 kts 359°
2026-05-05 01:19 35.22089 -80.93718 733 ft 7 kts 356°
2026-05-05 01:19 35.22132 -80.93722 733 ft 6 kts 356°
2026-05-05 01:19 35.22198 -80.93728 733 ft 15 kts 353°
2026-05-05 01:20 35.22327 -80.93743 733 ft 20 kts 355°
2026-05-05 01:20 35.22457 -80.93754 733 ft 13 kts 359°
2026-05-05 01:20 35.22500 -80.93726 734 ft 0 kts 70°
2026-05-05 01:21 35.22511 -80.93653 735 ft 17 kts 94°
2026-05-05 01:21 35.22419 -80.93612 736 ft 20 kts 176°
2026-05-05 01:21 35.22124 -80.93585 736 ft 83 kts 176°
2026-05-05 01:22 35.21267 -80.93511 736 ft 160 kts 175°
2026-05-05 01:22 35.20099 -80.93408 1527 ft 164 kts 178°
2026-05-05 01:22 35.18977 -80.93290 2391 ft 160 kts 178°
2026-05-05 01:22 35.17831 -80.93155 2733 ft 175 kts 177°
2026-05-05 01:23 35.16638 -80.92555 2872 ft 204 kts 143°
2026-05-05 01:23 35.15959 -80.90905 2986 ft 240 kts 102°
2026-05-05 01:23 35.16055 -80.88740 3218 ft 270 kts 83°
2026-05-05 01:23 35.16514 -80.86454 3847 ft 281 kts 76°
2026-05-05 01:24 35.17092 -80.84152 4621 ft 286 kts 75°
2026-05-05 01:24 35.17686 -80.81820 5407 ft 289 kts 75°
2026-05-05 01:24 35.18259 -80.79454 6206 ft 291 kts 75°
2026-05-05 01:24 35.18808 -80.77059 6962 ft 294 kts 75°
2026-05-05 01:25 35.19336 -80.74626 7685 ft 297 kts 76°
2026-05-05 01:25 35.19847 -80.72192 8385 ft 301 kts 76°
2026-05-05 01:25 35.20360 -80.69692 9128 ft 305 kts 76°
2026-05-05 01:25 35.20873 -80.67160 9838 ft 309 kts 76°
2026-05-05 01:26 35.21396 -80.64573 10277 ft 322 kts 76°
2026-05-05 01:26 35.21953 -80.61819 10401 ft 345 kts 76°
2026-05-05 01:26 35.22548 -80.58883 10531 ft 365 kts 76°
2026-05-05 01:26 35.23170 -80.55827 10936 ft 374 kts 75°
2026-05-05 01:27 35.23805 -80.52720 11529 ft 378 kts 75°
2026-05-05 01:27 35.24444 -80.49590 12167 ft 381 kts 75°
2026-05-05 01:27 35.25083 -80.46434 12800 ft 384 kts 75°
2026-05-05 01:27 35.25722 -80.43255 13433 ft 387 kts 75°
2026-05-05 01:28 35.26367 -80.40047 14023 ft 390 kts 75°
2026-05-05 01:28 35.27020 -80.36815 14558 ft 393 kts 75°
2026-05-05 01:28 35.27678 -80.33554 15069 ft 396 kts 75°
2026-05-05 01:28 35.28343 -80.30264 15577 ft 400 kts 74°
2026-05-05 01:29 35.29012 -80.26948 16066 ft 403 kts 75°
2026-05-05 01:29 35.29683 -80.23608 16566 ft 406 kts 75°
2026-05-05 01:29 35.30360 -80.20231 17053 ft 410 kts 75°
2026-05-05 01:29 35.31039 -80.16828 17529 ft 413 kts 75°
2026-05-05 01:30 35.31723 -80.13403 17968 ft 416 kts 75°
2026-05-05 01:30 35.32410 -80.09949 18401 ft 419 kts 75°
2026-05-05 01:30 35.33104 -80.06462 18760 ft 422 kts 75°
2026-05-05 01:30 35.33801 -80.02959 19130 ft 425 kts 75°
2026-05-05 01:31 35.34501 -79.99428 19506 ft 427 kts 75°
2026-05-05 01:31 35.35204 -79.95881 19872 ft 430 kts 75°
2026-05-05 01:31 35.35908 -79.92315 20229 ft 432 kts 75°
2026-05-05 01:31 35.36615 -79.88732 20587 ft 434 kts 75°
2026-05-05 01:32 35.37331 -79.85119 20945 ft 437 kts 73°
2026-05-05 01:32 35.38269 -79.81586 21301 ft 438 kts 68°
2026-05-05 01:32 35.39294 -79.78062 21692 ft 440 kts 68°
2026-05-05 01:32 35.40323 -79.74521 22092 ft 442 kts 68°
2026-05-05 01:33 35.41358 -79.70957 22485 ft 445 kts 68°
2026-05-05 01:33 35.42398 -79.67372 22879 ft 447 kts 68°
2026-05-05 01:33 35.43443 -79.63773 23269 ft 449 kts 69°
2026-05-05 01:33 35.44491 -79.60153 23647 ft 452 kts 69°
2026-05-05 01:34 35.45546 -79.56505 23964 ft 454 kts 69°
2026-05-05 01:34 35.46589 -79.52890 24264 ft 457 kts 69°
2026-05-05 01:34 35.47651 -79.49208 24572 ft 459 kts 69°
2026-05-05 01:34 35.48716 -79.45503 24878 ft 462 kts 69°
2026-05-05 01:35 35.49784 -79.41777 25165 ft 464 kts 69°
2026-05-05 01:35 35.50860 -79.38034 25474 ft 466 kts 69°
2026-05-05 01:35 35.51938 -79.34275 25767 ft 468 kts 69°
2026-05-05 01:35 35.53017 -79.30496 26068 ft 471 kts 69°
2026-05-05 01:36 35.54102 -79.26694 26359 ft 473 kts 69°
2026-05-05 01:36 35.55192 -79.22867 26647 ft 475 kts 69°
2026-05-05 01:36 35.56285 -79.19027 26932 ft 478 kts 69°
2026-05-05 01:36 35.57391 -79.15161 27216 ft 480 kts 67°
2026-05-05 01:37 35.58763 -79.11437 27492 ft 479 kts 58°
2026-05-05 01:37 35.60570 -79.08012 27747 ft 477 kts 49°
2026-05-05 01:37 35.62771 -79.04967 28006 ft 475 kts 40°
2026-05-05 01:37 35.65238 -79.02270 28246 ft 476 kts 37°
2026-05-05 01:38 35.67735 -78.99586 28470 ft 478 kts 37°
2026-05-05 01:38 35.70243 -78.96878 28711 ft 480 kts 37°
2026-05-05 01:38 35.72751 -78.94157 28927 ft 482 kts 37°
2026-05-05 01:38 35.75263 -78.91424 29155 ft 483 kts 37°
2026-05-05 01:39 35.77789 -78.88673 29356 ft 485 kts 37°
2026-05-05 01:39 35.80311 -78.85922 29611 ft 485 kts 37°
2026-05-05 01:39 35.82833 -78.83168 29891 ft 484 kts 37°
2026-05-05 01:39 35.85355 -78.80413 30142 ft 484 kts 37°
2026-05-05 01:40 35.87844 -78.77699 30367 ft 484 kts 37°
2026-05-05 01:40 35.90381 -78.74983 30602 ft 483 kts 36°
2026-05-05 01:40 35.92944 -78.72297 30818 ft 483 kts 36°
2026-05-05 01:40 35.95519 -78.69629 31059 ft 482 kts 35°
2026-05-05 01:41 35.98090 -78.66969 31325 ft 482 kts 35°
2026-05-05 01:41 36.00659 -78.64301 31565 ft 482 kts 36°
2026-05-05 01:41 36.03217 -78.61624 31803 ft 482 kts 36°
2026-05-05 01:41 36.05768 -78.58940 32044 ft 482 kts 36°
2026-05-05 01:42 36.08320 -78.56242 32279 ft 483 kts 36°
2026-05-05 01:42 36.10868 -78.53540 32515 ft 483 kts 36°
2026-05-05 01:42 36.13415 -78.50835 32752 ft 483 kts 36°
2026-05-05 01:42 36.15968 -78.48124 32996 ft 483 kts 36°
2026-05-05 01:43 36.18516 -78.45425 33206 ft 483 kts 36°
2026-05-05 01:43 36.21069 -78.42722 33491 ft 482 kts 36°
2026-05-05 01:43 36.23620 -78.40022 33744 ft 482 kts 36°
2026-05-05 01:43 36.26167 -78.37326 33981 ft 482 kts 35°
2026-05-05 01:44 36.28718 -78.34628 34191 ft 482 kts 35°
2026-05-05 01:44 36.31267 -78.31928 34400 ft 481 kts 36°
2026-05-05 01:44 36.33811 -78.29225 34614 ft 481 kts 36°
2026-05-05 01:44 36.36348 -78.26519 34829 ft 480 kts 36°
2026-05-05 01:45 36.38871 -78.23802 35027 ft 480 kts 37°
2026-05-05 01:45 36.41344 -78.21009 35256 ft 481 kts 38°
2026-05-05 01:45 36.43768 -78.18155 35500 ft 480 kts 39°
2026-05-05 01:45 36.46162 -78.15271 35705 ft 479 kts 40°
2026-05-05 01:46 36.48550 -78.12381 35896 ft 479 kts 40°
2026-05-05 01:46 36.50946 -78.09503 36084 ft 478 kts 39°
2026-05-05 01:46 36.53344 -78.06653 36298 ft 477 kts 39°
2026-05-05 01:46 36.55752 -78.03811 36458 ft 477 kts 39°
2026-05-05 01:47 36.58163 -78.00977 36690 ft 476 kts 39°
2026-05-05 01:47 36.60571 -77.98148 36852 ft 476 kts 39°
2026-05-05 01:47 36.62977 -77.95317 37063 ft 475 kts 39°
2026-05-05 01:47 36.65370 -77.92493 37068 ft 474 kts 39°
2026-05-05 01:48 36.70145 -77.86848 37059 ft 472 kts 39°
2026-05-05 01:48 36.74906 -77.81202 37026 ft 472 kts 39°
2026-05-05 01:49 36.79658 -77.75545 37026 ft 472 kts 39°
2026-05-05 01:49 36.84409 -77.69887 37047 ft 472 kts 39°
2026-05-05 01:50 36.89157 -77.64236 37044 ft 471 kts 39°
2026-05-05 01:50 36.93908 -77.58579 37023 ft 471 kts 40°
2026-05-05 01:51 36.98642 -77.52919 37022 ft 471 kts 40°
2026-05-05 01:51 37.03336 -77.47291 37026 ft 471 kts 40°
2026-05-05 01:52 37.08103 -77.41670 37050 ft 468 kts 35°
2026-05-05 01:52 37.13616 -77.37572 37043 ft 456 kts 17°
2026-05-05 01:53 37.19586 -77.34970 37035 ft 454 kts 14°
2026-05-05 01:53 37.25558 -77.32387 37031 ft 454 kts 14°
2026-05-05 01:54 37.30523 -77.30229 37029 ft 454 kts 14°
2026-05-05 01:54 37.36494 -77.27629 37017 ft 454 kts 14°
2026-05-05 01:55 37.42474 -77.25022 36999 ft 454 kts 14°
2026-05-05 01:55 37.48453 -77.22412 36991 ft 455 kts 15°
2026-05-05 01:56 37.54429 -77.19793 37004 ft 455 kts 15°
2026-05-05 01:56 37.60404 -77.17174 37001 ft 455 kts 15°
2026-05-05 01:57 37.66384 -77.14552 37000 ft 455 kts 15°
2026-05-05 01:57 37.72180 -77.11297 37001 ft 460 kts 25°
2026-05-05 01:58 37.77792 -77.07412 36999 ft 460 kts 25°
2026-05-05 01:58 37.83404 -77.03520 37001 ft 460 kts 25°
2026-05-05 01:59 37.89023 -76.99621 37002 ft 460 kts 25°
2026-05-05 01:59 37.94601 -76.95749 37020 ft 460 kts 25°
2026-05-05 02:00 38.00211 -76.91842 37001 ft 460 kts 25°
2026-05-05 02:00 38.05816 -76.87929 36994 ft 459 kts 25°
2026-05-05 02:01 38.11413 -76.84027 36982 ft 459 kts 25°
2026-05-05 02:01 38.17018 -76.80111 36997 ft 460 kts 25°
2026-05-05 02:02 38.22619 -76.76183 36986 ft 460 kts 26°
2026-05-05 02:02 38.27798 -76.71343 36983 ft 464 kts 37°
2026-05-05 02:03 38.32715 -76.66010 36977 ft 465 kts 37°
2026-05-05 02:03 38.37652 -76.60685 36997 ft 465 kts 37°
2026-05-05 02:04 38.42582 -76.55354 36988 ft 464 kts 37°
2026-05-05 02:04 38.47514 -76.50037 36985 ft 464 kts 37°
2026-05-05 02:05 38.52464 -76.44742 36981 ft 464 kts 37°
2026-05-05 02:05 38.57410 -76.39442 36985 ft 464 kts 37°
2026-05-05 02:06 38.62329 -76.34138 36983 ft 464 kts 37°
2026-05-05 02:06 38.67280 -76.28782 36978 ft 464 kts 37°
2026-05-05 02:07 38.72176 -76.23481 36980 ft 464 kts 37°
2026-05-05 02:07 38.77100 -76.18138 36990 ft 464 kts 37°
2026-05-05 02:08 38.82025 -76.12790 36987 ft 464 kts 37°
2026-05-05 02:08 38.86945 -76.07439 36983 ft 464 kts 37°
2026-05-05 02:09 38.91866 -76.02080 36977 ft 464 kts 37°
2026-05-05 02:09 38.96774 -75.96706 36990 ft 464 kts 38°
2026-05-05 02:10 39.01561 -75.91128 36971 ft 465 kts 40°
2026-05-05 02:10 39.06254 -75.85409 36964 ft 465 kts 41°
2026-05-05 02:11 39.10963 -75.79699 36955 ft 465 kts 40°
2026-05-05 02:11 39.15702 -75.74036 36961 ft 465 kts 40°
2026-05-05 02:12 39.22820 -75.65548 36959 ft 464 kts 40°
2026-05-05 02:13 39.27551 -75.59870 36956 ft 464 kts 40°
2026-05-05 02:13 39.32220 -75.54250 36952 ft 464 kts 40°
2026-05-05 02:14 39.36938 -75.48555 36973 ft 464 kts 40°
2026-05-05 02:14 39.41617 -75.42895 36963 ft 464 kts 40°
2026-05-05 02:15 39.46333 -75.37195 36954 ft 464 kts 40°
2026-05-05 02:15 39.51041 -75.31487 36953 ft 464 kts 40°
2026-05-05 02:16 39.55744 -75.25759 36965 ft 464 kts 40°
2026-05-05 02:16 39.60442 -75.20033 36963 ft 464 kts 40°
2026-05-05 02:17 39.65140 -75.14305 36957 ft 463 kts 40°
2026-05-05 02:17 39.69862 -75.08599 36954 ft 463 kts 38°
2026-05-05 02:18 39.74723 -75.03129 36955 ft 462 kts 37°
2026-05-05 02:18 39.79641 -74.97737 36957 ft 462 kts 37°
2026-05-05 02:19 39.84521 -74.92293 36965 ft 463 kts 38°
2026-05-05 02:19 39.89338 -74.86821 36967 ft 462 kts 37°
2026-05-05 02:20 39.94502 -74.81898 36983 ft 460 kts 31°
2026-05-05 02:20 39.99721 -74.77093 36977 ft 459 kts 31°
2026-05-05 02:21 40.04718 -74.71883 36979 ft 464 kts 44°
2026-05-05 02:21 40.09064 -74.65641 36952 ft 465 kts 44°
2026-05-05 02:22 40.13406 -74.59385 36958 ft 465 kts 44°
2026-05-05 02:22 40.17745 -74.53119 36949 ft 465 kts 44°
2026-05-05 02:23 40.22348 -74.47264 36950 ft 460 kts 35°
2026-05-05 02:23 40.27321 -74.41989 36966 ft 460 kts 35°
2026-05-05 02:24 40.32276 -74.36683 36980 ft 460 kts 35°
2026-05-05 02:24 40.37227 -74.31369 36976 ft 460 kts 35°
2026-05-05 02:25 40.42174 -74.26059 36960 ft 459 kts 35°
2026-05-05 02:25 40.47120 -74.20741 36987 ft 459 kts 35°
2026-05-05 02:26 40.52012 -74.15327 36975 ft 462 kts 41°
2026-05-05 02:26 40.55775 -74.08432 36969 ft 470 kts 62°
2026-05-05 02:27 40.57924 -74.00261 36982 ft 474 kts 70°
2026-05-05 02:27 40.59858 -73.91963 36622 ft 474 kts 70°
2026-05-05 02:27 40.60813 -73.87871 35895 ft 474 kts 70°
2026-05-05 02:28 40.61776 -73.83717 35055 ft 475 kts 70°
2026-05-05 02:28 40.62742 -73.79546 34176 ft 478 kts 70°
2026-05-05 02:28 40.63877 -73.75458 33272 ft 474 kts 63°
2026-05-05 02:28 40.65231 -73.71491 32216 ft 476 kts 63°
2026-05-05 02:29 40.66590 -73.67512 31297 ft 476 kts 63°
2026-05-05 02:29 40.67946 -73.63538 30366 ft 476 kts 63°
2026-05-05 02:29 40.69311 -73.59537 29198 ft 480 kts 63°
2026-05-05 02:29 40.70676 -73.55531 28334 ft 477 kts 63°
2026-05-05 02:30 40.72014 -73.51587 27768 ft 468 kts 63°
2026-05-05 02:30 40.73335 -73.47685 27098 ft 462 kts 63°
2026-05-05 02:30 40.74636 -73.43838 26453 ft 457 kts 63°
2026-05-05 02:30 40.75922 -73.40031 25816 ft 452 kts 63°
2026-05-05 02:31 40.77193 -73.36262 25200 ft 447 kts 63°
2026-05-05 02:31 40.78574 -73.32619 24548 ft 440 kts 56°
2026-05-05 02:31 40.80342 -73.29377 23938 ft 432 kts 46°
2026-05-05 02:31 40.82445 -73.26595 23312 ft 423 kts 37°
2026-05-05 02:32 40.84646 -73.24059 22710 ft 417 kts 37°
2026-05-05 02:32 40.86803 -73.21557 22185 ft 408 kts 38°
2026-05-05 02:32 40.88909 -73.19103 21680 ft 400 kts 38°
2026-05-05 02:32 40.90982 -73.16685 21175 ft 396 kts 38°
2026-05-05 02:33 40.93043 -73.14280 20696 ft 394 kts 38°
2026-05-05 02:33 40.95096 -73.11887 20260 ft 393 kts 38°
2026-05-05 02:33 40.97141 -73.09503 19781 ft 391 kts 38°
2026-05-05 02:33 40.99177 -73.07122 19352 ft 390 kts 38°
2026-05-05 02:34 41.01205 -73.04746 18903 ft 388 kts 38°
2026-05-05 02:34 41.03222 -73.02382 18457 ft 386 kts 38°
2026-05-05 02:34 41.05231 -73.00030 17964 ft 384 kts 38°
2026-05-05 02:34 41.07233 -72.97689 17508 ft 382 kts 38°
2026-05-05 02:35 41.09220 -72.95363 17024 ft 380 kts 38°
2026-05-05 02:35 41.11191 -72.93056 16565 ft 377 kts 38°
2026-05-05 02:35 41.13151 -72.90760 16097 ft 374 kts 38°
2026-05-05 02:35 41.15096 -72.88475 15616 ft 372 kts 38°
2026-05-05 02:36 41.17021 -72.86204 15127 ft 369 kts 38°
2026-05-05 02:36 41.18935 -72.83945 14648 ft 367 kts 38°
2026-05-05 02:36 41.20839 -72.81698 14150 ft 364 kts 38°
2026-05-05 02:36 41.22726 -72.79471 13654 ft 362 kts 38°
2026-05-05 02:37 41.24602 -72.77257 13124 ft 359 kts 38°
2026-05-05 02:37 41.26456 -72.75065 12630 ft 355 kts 38°
2026-05-05 02:37 41.28291 -72.72894 12127 ft 351 kts 38°
2026-05-05 02:37 41.30131 -72.70779 11635 ft 347 kts 34°
2026-05-05 02:38 41.32120 -72.69111 11136 ft 340 kts 23°
2026-05-05 02:38 41.34314 -72.67949 10718 ft 330 kts 14°
2026-05-05 02:38 41.35738 -72.67340 10632 ft 320 kts 14°
2026-05-05 02:38 41.38457 -72.66143 10459 ft 302 kts 14°
2026-05-05 02:39 41.40428 -72.65262 10171 ft 296 kts 15°
2026-05-05 02:39 41.42363 -72.64397 9935 ft 292 kts 15°
2026-05-05 02:39 41.44286 -72.63544 9800 ft 291 kts 15°
2026-05-05 02:39 41.45585 -72.62971 9702 ft 291 kts 15°
2026-05-05 02:40 41.48125 -72.61848 9528 ft 291 kts 15°
2026-05-05 02:40 41.50048 -72.60998 9119 ft 291 kts 15°
2026-05-05 02:40 41.51344 -72.60424 8800 ft 290 kts 15°
2026-05-05 02:40 41.53255 -72.59579 8316 ft 289 kts 15°
2026-05-05 02:41 41.55165 -72.58737 7832 ft 289 kts 15°
2026-05-05 02:41 41.57076 -72.57893 7346 ft 290 kts 15°
2026-05-05 02:41 41.58996 -72.57041 6868 ft 291 kts 15°
2026-05-05 02:41 41.60909 -72.56187 6418 ft 290 kts 15°
2026-05-05 02:42 41.62823 -72.55333 5930 ft 290 kts 15°
2026-05-05 02:42 41.64726 -72.54573 5449 ft 288 kts
2026-05-05 02:42 41.66693 -72.54023 4931 ft 289 kts
2026-05-05 02:42 41.68671 -72.53476 4443 ft 290 kts
2026-05-05 02:43 41.70625 -72.52932 4161 ft 282 kts
2026-05-05 02:43 41.72506 -72.52400 4070 ft 269 kts
2026-05-05 02:43 41.74288 -72.51893 4021 ft 253 kts
2026-05-05 02:43 41.75951 -72.51419 3927 ft 236 kts
2026-05-05 02:44 41.77498 -72.50978 3834 ft 219 kts
2026-05-05 02:44 41.78957 -72.50633 3730 ft 207 kts 354°
2026-05-05 02:44 41.80326 -72.50944 3627 ft 195 kts 331°
2026-05-05 02:44 41.81448 -72.51863 3524 ft 185 kts 309°
2026-05-05 02:45 41.82346 -72.53084 3219 ft 186 kts 306°
2026-05-05 02:45 41.83255 -72.54326 2889 ft 184 kts 305°
2026-05-05 02:45 41.84147 -72.55542 2624 ft 182 kts 305°
2026-05-05 02:45 41.85020 -72.56728 2377 ft 174 kts 304°
2026-05-05 02:46 41.85866 -72.57882 2140 ft 172 kts 303°
2026-05-05 02:46 41.86702 -72.59023 1908 ft 171 kts 303°
2026-05-05 02:46 41.87532 -72.60156 1681 ft 170 kts 302°
2026-05-05 02:46 41.88369 -72.61300 1455 ft 174 kts 303°
2026-05-05 02:47 41.89214 -72.62454 1217 ft 174 kts 306°
2026-05-05 02:47 41.90066 -72.63618 1012 ft 177 kts 309°
2026-05-05 02:47 41.90928 -72.64795 781 ft 179 kts 310°
2026-05-05 02:47 41.91808 -72.65999 538 ft 181 kts 312°
2026-05-05 02:48 41.92666 -72.67182 264 ft 175 kts 310°
2026-05-05 02:48 41.93480 -72.68285 214 ft 154 kts 312°
2026-05-05 02:48 41.94067 -72.69085 210 ft 78 kts 314°
2026-05-05 02:48 41.94217 -72.69321 208 ft 9 kts 257°
2026-05-05 02:49 41.94161 -72.69396 211 ft 15 kts 187°
2026-05-05 02:49 41.94056 -72.69291 207 ft 24 kts 136°
2026-05-05 02:49 41.93917 -72.69101 213 ft 33 kts 134°
2026-05-05 02:49 41.93752 -72.68859 210 ft 35 kts 126°
2026-05-05 02:50 41.93603 -72.68655 214 ft 21 kts 135°
2026-05-05 02:50 41.93498 -72.68514 210 ft 22 kts 131°
2026-05-05 02:50 41.93391 -72.68368 205 ft 21 kts 135°
2026-05-05 02:50 41.93323 -72.68318 211 ft 7 kts 205°
2026-05-05 02:51 41.93296 -72.68336 211 ft 0 kts 207°
2026-05-05 02:51 41.93290 -72.68335 211 ft 1 kts 167°
2026-05-05 02:51 41.93258 -72.68292 209 ft 12 kts 136°
2026-05-05 02:51 41.93230 -72.68293 211 ft 4 kts 216°
2026-05-05 02:52 41.93212 -72.68317 209 ft 4 kts 223°
2026-05-05 02:52 41.93202 -72.68333 211 ft 1 kts 229°
2026-05-05 02:52 41.93200 -72.68336 205 ft 0 kts 229°
2026-05-05 02:52 41.93199 -72.68338 205 ft 0 kts 229°
2026-05-05 02:53 41.93198 -72.68339 205 ft 0 kts 230°
2026-05-05 02:53 41.93197 -72.68340 205 ft 2 kts 230°
2026-05-05 02:53 41.93197 -72.68341 205 ft 0 kts 230°